When you browse on this site, cookies collect data to enhance your experience and personalize the content and advertising you see.
Visit our Privacy Policy to learn more. By continuing to use the site, you agree to this use of cookies and data.
  • în România
  • Lista ţărilor
  • Pe 7 zile
  • Temperatura apei
  • Meteo pe hartă
  • Widget-uri
  • user-avatar
    Intrare

    Meteo pe oră la Prinston

    Astăzi, 19 Februarie, Miercuri

    Timp Temperatura Precipitaţii Vânt Presiune Umiditate
    00:00 +8°C° 0 mm 3 m/s 758 mmHg 87%
    01:00 +8°C° 0 mm 3 m/s 759 mmHg 86%
    02:00 +7°C° 0 mm 3 m/s 759 mmHg 80%
    03:00 +5°C° 0 mm 4 m/s 760 mmHg 74%
    04:00 +3°C° 0 mm 4 m/s 760 mmHg 68%
    05:00 +3°C° 0 mm 4 m/s 761 mmHg 68%
    06:00 +2°C° 0 mm 3 m/s 762 mmHg 68%
    07:00 +1°C° 0 mm 3 m/s 763 mmHg 68%
    08:00 +1°C° 0 mm 4 m/s 763 mmHg 62%
    09:00 +3°C° 0 mm 4 m/s 763 mmHg 56%
    10:00 +3°C° 0 mm 5 m/s 764 mmHg 50%
    11:00 +3°C° 0 mm 5 m/s 764 mmHg 45%
    12:00 +5°C° 0 mm 5 m/s 764 mmHg 41%
    13:00 +5°C° 0 mm 6 m/s 764 mmHg 36%
    14:00 +5°C° 0 mm 6 m/s 764 mmHg 36%
    15:00 +4°C° 0 mm 6 m/s 765 mmHg 37%
    16:00 +5°C° 0 mm 5 m/s 765 mmHg 37%
    17:00 +2°C° 0 mm 5 m/s 766 mmHg 40%
    18:00 +1°C° 0 mm 4 m/s 766 mmHg 44%
    19:00 0°C° 0 mm 3 m/s 767 mmHg 47%
    20:00 0°C° 0 mm 3 m/s 768 mmHg 49%
    21:00 -1°C° 0 mm 3 m/s 768 mmHg 51%
    22:00 -2°C° 0 mm 3 m/s 768 mmHg 52%
    23:00 -2°C° 0 mm 3 m/s 768 mmHg 52%

    Mâine, 20 Februarie, Joi

    Timp Temperatura Precipitaţii Vânt Presiune Umiditate
    00:00 -2°C° 0 mm 3 m/s 769 mmHg 52%
    01:00 -2°C° 0 mm 3 m/s 769 mmHg 51%
    02:00 -4°C° 0 mm 3 m/s 769 mmHg 51%
    03:00 -4°C° 0 mm 3 m/s 769 mmHg 51%
    04:00 -4°C° 0 mm 3 m/s 769 mmHg 51%
    05:00 -3°C° 0 mm 2 m/s 769 mmHg 51%
    06:00 -3°C° 0 mm 2 m/s 769 mmHg 52%
    07:00 -4°C° 0 mm 2 m/s 769 mmHg 53%
    08:00 -3°C° 0 mm 2 m/s 769 mmHg 48%
    09:00 -2°C° 0 mm 3 m/s 769 mmHg 43%
    10:00 -1°C° 0 mm 3 m/s 769 mmHg 39%
    11:00 -1°C° 0 mm 3 m/s 769 mmHg 38%
    12:00 0°C° 0 mm 3 m/s 769 mmHg 37%
    13:00 +1°C° 0 mm 3 m/s 768 mmHg 36%
    14:00 +1°C° 0 mm 3 m/s 768 mmHg 37%
    15:00 0°C° 0 mm 3 m/s 768 mmHg 39%
    16:00 +1°C° 0 mm 2 m/s 768 mmHg 41%
    17:00 +1°C° 0 mm 2 m/s 768 mmHg 43%
    18:00 -1°C° 0 mm 2 m/s 768 mmHg 45%
    19:00 -1°C° 0 mm 2 m/s 769 mmHg 47%
    20:00 -2°C° 0 mm 3 m/s 769 mmHg 46%
    21:00 -4°C° 0 mm 3 m/s 769 mmHg 45%
    22:00 -4°C° 0 mm 3 m/s 769 mmHg 43%
    23:00 -5°C° 0 mm 3 m/s 769 mmHg 44%

    Poimâine, 21 Februarie, Vineri

    Timp Temperatura Precipitaţii Vânt Presiune Umiditate
    00:00 -5°C° 0 mm 3 m/s 769 mmHg 45%
    01:00 -7°C° 0 mm 4 m/s 769 mmHg 46%
    08:00 -8°C° 0 mm 4 m/s 769 mmHg 44%
    09:00 -6°C° 0 mm 3 m/s 769 mmHg 39%
    10:00 -5°C° 0 mm 3 m/s 769 mmHg 35%
    11:00 -2°C° 0 mm 3 m/s 769 mmHg 30%
    12:00 -1°C° 0 mm 2 m/s 769 mmHg 26%
    13:00 +1°C° 0 mm 2 m/s 768 mmHg 21%
    14:00 +2°C° 0 mm 2 m/s 768 mmHg 22%
    15:00 +2°C° 0 mm 2 m/s 768 mmHg 22%
    16:00 +2°C° 0 mm 2 m/s 768 mmHg 23%
    17:00 +1°C° 0 mm 2 m/s 768 mmHg 26%
    18:00 -1°C° 0 mm 2 m/s 768 mmHg 30%
    19:00 -2°C° 0 mm 2 m/s 768 mmHg 34%
    20:00 -2°C° 0 mm 2 m/s 768 mmHg 35%
    21:00 -2°C° 0 mm 2 m/s 767 mmHg 36%
    22:00 -3°C° 0 mm 2 m/s 767 mmHg 38%
    23:00 -3°C° 0 mm 2 m/s 767 mmHg 40%

    22 Februarie, Sâmbătă

    Timp Temperatura Precipitaţii Vânt Presiune Umiditate
    00:00 -3°C° 0 mm 2 m/s 766 mmHg 42%
    01:00 -4°C° 0 mm 3 m/s 766 mmHg 44%
    02:00 -4°C° 0 mm 3 m/s 766 mmHg 44%
    03:00 -4°C° 0 mm 3 m/s 765 mmHg 44%
    04:00 -4°C° 0 mm 3 m/s 765 mmHg 43%
    05:00 -4°C° 0 mm 3 m/s 765 mmHg 43%
    06:00 -4°C° 0 mm 3 m/s 765 mmHg 42%
    07:00 -4°C° 0 mm 3 m/s 765 mmHg 42%
    08:00 -2°C° 0 mm 4 m/s 765 mmHg 37%
    09:00 -1°C° 0 mm 4 m/s 765 mmHg 33%
    10:00 +1°C° 0 mm 4 m/s 765 mmHg 28%
    11:00 +2°C° 0 mm 5 m/s 765 mmHg 28%
    12:00 +5°C° 0 mm 5 m/s 764 mmHg 27%
    13:00 +6°C° 0 mm 5 m/s 764 mmHg 26%
    14:00 +6°C° 0 mm 5 m/s 763 mmHg 28%
    15:00 +6°C° 0 mm 4 m/s 763 mmHg 30%
    16:00 +7°C° 0 mm 4 m/s 762 mmHg 31%
    17:00 +5°C° 0 mm 4 m/s 763 mmHg 35%
    18:00 +4°C° 0 mm 3 m/s 763 mmHg 39%
    19:00 +2°C° 0 mm 3 m/s 764 mmHg 43%
    20:00 +2°C° 0 mm 2 m/s 764 mmHg 46%
    21:00 +2°C° 0 mm 2 m/s 764 mmHg 49%
    22:00 +1°C° 0 mm 2 m/s 764 mmHg 51%
    23:00 +1°C° 0 mm 2 m/s 764 mmHg 52%

    23 Februarie, Duminică

    Timp Temperatura Precipitaţii Vânt Presiune Umiditate
    00:00 +1°C° 0 mm 2 m/s 764 mmHg 52%
    01:00 -1°C° 0 mm 2 m/s 764 mmHg 53%
    02:00 -1°C° 0 mm 2 m/s 764 mmHg 54%
    03:00 -1°C° 0 mm 2 m/s 764 mmHg 55%
    04:00 -2°C° 0 mm 2 m/s 764 mmHg 56%
    05:00 -2°C° 0 mm 2 m/s 764 mmHg 57%
    06:00 -2°C° 0 mm 2 m/s 764 mmHg 58%
    07:00 0°C° 0 mm 1 m/s 764 mmHg 59%
    08:00 +1°C° 0 mm 2 m/s 764 mmHg 54%
    09:00 +3°C° 0 mm 2 m/s 764 mmHg 49%
    10:00 +5°C° 0 mm 2 m/s 765 mmHg 43%
    11:00 +6°C° 0 mm 2 m/s 764 mmHg 41%
    12:00 +7°C° 0 mm 3 m/s 764 mmHg 38%
    13:00 +9°C° 0 mm 3 m/s 763 mmHg 35%
    14:00 +9°C° 0 mm 3 m/s 763 mmHg 36%
    15:00 +9°C° 0 mm 3 m/s 762 mmHg 37%
    16:00 +9°C° 0 mm 2 m/s 762 mmHg 38%
    17:00 +7°C° 0 mm 2 m/s 762 mmHg 42%
    18:00 +6°C° 0 mm 2 m/s 762 mmHg 46%
    19:00 +5°C° 0 mm 2 m/s 762 mmHg 50%
    20:00 +4°C° 0 mm 2 m/s 762 mmHg 54%
    21:00 +4°C° 0 mm 2 m/s 762 mmHg 58%
    22:00 +3°C° 0 mm 2 m/s 762 mmHg 63%
    23:00 +3°C° 0 mm 2 m/s 762 mmHg 69%

    24 Februarie, Luni

    Timp Temperatura Precipitaţii Vânt Presiune Umiditate
    00:00 +3°C° 0 mm 2 m/s 761 mmHg 74%
    01:00 +3°C° 0 mm 1 m/s 761 mmHg 80%
    02:00 +3°C° 0 mm 1 m/s 761 mmHg 83%
    03:00 +3°C° 0 mm 1 m/s 760 mmHg 86%
    04:00 +3°C° 0 mm 1 m/s 760 mmHg 88%
    05:00 +2°C° 0 mm 2 m/s 760 mmHg 90%
    06:00 +2°C° 0 mm 2 m/s 760 mmHg 91%
    07:00 +3°C° 0 mm 2 m/s 760 mmHg 92%
    08:00 +4°C° 0 mm 2 m/s 760 mmHg 88%
    09:00 +6°C° 0 mm 1 m/s 760 mmHg 83%
    10:00 +7°C° 0 mm 1 m/s 760 mmHg 79%
    11:00 +8°C° 0 mm 1 m/s 759 mmHg 74%
    12:00 +9°C° 0 mm 1 m/s 759 mmHg 69%
    13:00 +9°C° 0 mm 2 m/s 759 mmHg 65%
    14:00 +8°C° 0.2 mm 2 m/s 758 mmHg 71%
    15:00 +9°C° 0.2 mm 1 m/s 758 mmHg 76%
    16:00 +8°C° 0.2 mm 1 m/s 758 mmHg 82%
    17:00 +8°C° 0 mm 1 m/s 758 mmHg 84%
    18:00 +7°C° 0 mm 1 m/s 758 mmHg 87%
    19:00 +7°C° 0 mm 1 m/s 758 mmHg 89%
    20:00 +7°C° 0 mm 1 m/s 758 mmHg 90%
    21:00 +7°C° 0 mm 1 m/s 758 mmHg 91%
    22:00 +6°C° 0 mm 1 m/s 758 mmHg 92%
    23:00 +6°C° 0.3 mm 1 m/s 758 mmHg 93%
    Arată mai mult